KMQY  Smyrna Airport

Add Bookmark

Smyrna, Tennessee, United States

Status Useage
Operational Public
Latitude Longitude
36° 0' 32" N 86° 31' 12" W
36.008972 -86.520083
Local (DST -5) UTC (GMT -6)
Oct 1, 2014 12:55 Oct 1, 2014 05:55
Sunrise-Sunset Local UTC
Begin Civil Twilight 06:15 11:15
Sunrise 06:40 11:40
Sunset 06:30 23:30
End Civil Twilight 06:55 23:55

Current Weather

METAR Observed VFR
KMQY 010456Z AUTO 00000KT 10SM CLR 14/13 A2994 Wed, Oct 1, 2014 @ 04:56 UTC
(59 Minutes ago)
Visual Flight Rules
Wind Visibility Clouds Conditions
Calm 10 statute miles
  • Clear skies
  • No significant weather
Temperatures Readings Precipitation
Current Temp 14°C (57°F)
Dewpoint 13°C (55°F)
Humidity 94%
Altimeter 29.94"Hg
Sea Level Pressure 1014.4mb
Field Elevation 543'
None Recorded

Additional weather within a 50nm radius of KMQY

Map ICAO Location
KBNA 10.3nm N (312°)
KSYI 27.2nm S (173°)
KRNC 37.8nm E (119°)
KTHA 40nm S (161°)
KMRC 42.1nm S (230°)
KSRB 48.1nm E (086°)

24 Hour Weather History

Loading
-

24 Hour Weather Graphs

Loading
-

CheckWX.com is intended as a tool to help pilots better visualize weather data. It is not intended as a substitute for an official weather briefing obtained from a Flight Service Station. CheckWX.com does not meet the FAA requirements for an official pre-flight weather briefing. Therefore, it's important that pilots still call and obtain an official FSS pre-flight weather briefing.